2020-10-11 00:07:53 r, 20.69m,0000000000Hz,0001016447c,0000002.206s, 021.2C,00002191
2020-10-11 00:17:54 r, 20.52m,0000000000Hz,0000871604c,0000001.892s, 021.2C,00002191
2020-10-11 00:27:56 r, 20.59m,0000000000Hz,0000933690c,0000002.026s, 021.2C,00002191
2020-10-11 00:37:53 r, 20.45m,0000000000Hz,0000816689c,0000001.772s, 021.2C,00002191
2020-10-11 00:47:56 r, 20.60m,0000000000Hz,0000938919c,0000002.038s, 021.2C,00002191
2020-10-11 00:57:54 r, 20.65m,0000000000Hz,0000984850c,0000002.137s, 021.2C,00002191
2020-10-11 01:07:53 r, 20.64m,0000000001Hz,0000970884c,0000002.107s, 021.2C,00002191
2020-10-11 01:17:56 r, 20.61m,0000000000Hz,0000947579c,0000002.056s, 021.2C,00002191
2020-10-11 01:27:54 r, 20.54m,0000000000Hz,0000892345c,0000001.937s, 021.5C,00002191
2020-10-11 01:37:53 r, 20.46m,0000000000Hz,0000830332c,0000001.802s, 021.5C,00002191
2020-10-11 01:47:54 r, 20.40m,0000000001Hz,0000779307c,0000001.691s, 021.5C,00002191
2020-10-11 01:57:55 r, 20.26m,0000000001Hz,0000689080c,0000001.495s, 021.5C,00002191
2020-10-11 02:07:53 r, 20.39m,0000000001Hz,0000770988c,0000001.673s, 021.5C,00002191
2020-10-11 02:17:55 r, 20.38m,0000000001Hz,0000767767c,0000001.666s, 021.5C,00002191
2020-10-11 02:27:54 r, 20.08m,0000000001Hz,0000585608c,0000001.271s, 021.9C,00002191
2020-10-11 02:37:53 r, 19.85m,0000000001Hz,0000475169c,0000001.031s, 021.9C,00002191
2020-10-11 02:47:54 r, 19.96m,0000000001Hz,0000526140c,0000001.142s, 021.9C,00002191
2020-10-11 02:57:56 r, 19.78m,0000000001Hz,0000443618c,0000000.963s, 022.2C,00002191
2020-10-11 03:07:53 r, 19.87m,0000000001Hz,0000482835c,0000001.048s, 022.2C,00002191
2020-10-11 03:17:56 r, 19.68m,0000000001Hz,0000406856c,0000000.883s, 022.2C,00002191
2020-10-11 03:27:54 r, 19.51m,0000000001Hz,0000348246c,0000000.756s, 022.2C,00002191
2020-10-11 03:37:53 r, 19.57m,0000000002Hz,0000364919c,0000000.792s, 022.5C,00002191
2020-10-11 03:47:54 r, 19.78m,0000000001Hz,0000447994c,0000000.972s, 022.5C,00002191
2020-10-11 03:57:55 r, 19.92m,0000000001Hz,0000506887c,0000001.100s, 022.5C,00002191
2020-10-11 04:07:53 r, 19.83m,0000000001Hz,0000463852c,0000001.007s, 022.5C,00002191
2020-10-11 04:17:55 r, 19.87m,0000000001Hz,0000484735c,0000001.052s, 022.5C,00002191
2020-10-11 04:27:54 r, 19.91m,0000000001Hz,0000501742c,0000001.089s, 022.2C,00002191
2020-10-11 04:37:53 r, 19.88m,0000000001Hz,0000489354c,0000001.062s, 022.2C,00002191
2020-10-11 04:47:54 r, 19.86m,0000000001Hz,0000479966c,0000001.042s, 022.2C,00002191
2020-10-11 04:57:56 r, 19.84m,0000000001Hz,0000472475c,0000001.025s, 022.2C,00002191
2020-10-11 05:07:53 r, 19.83m,0000000001Hz,0000465628c,0000001.010s, 022.2C,00002191
2020-10-11 05:17:56 r, 19.76m,0000000001Hz,0000437829c,0000000.950s, 021.9C,00002191
2020-10-11 05:27:54 r, 19.72m,0000000001Hz,0000422132c,0000000.916s, 021.9C,00002191
2020-10-11 05:37:53 r, 19.68m,0000000002Hz,0000406924c,0000000.883s, 021.9C,00002191
2020-10-11 05:47:56 r, 19.62m,0000000002Hz,0000384087c,0000000.834s, 021.9C,00002191
2020-10-11 05:57:54 r, 19.49m,0000000001Hz,0000341591c,0000000.741s, 021.9C,00002191
2020-10-11 06:07:53 r, 19.35m,0000000001Hz,0000299400c,0000000.650s, 022.2C,00002191
2020-10-11 06:17:54 r, 19.00m,0000000002Hz,0000216881c,0000000.471s, 022.2C,00002191
2020-10-11 06:27:55 r, 19.11m,0000000002Hz,0000239885c,0000000.521s, 022.2C,00002191
2020-10-11 06:37:53 r, 18.74m,0000000002Hz,0000171213c,0000000.372s, 022.5C,00002191
2020-10-11 06:47:55 r, 17.88m,0000000006Hz,0000077399c,0000000.168s, 022.5C,00002191
2020-10-11 06:57:54 r, 16.28m,0000000025Hz,0000017854c,0000000.039s, 022.8C,00002191
2020-10-11 07:07:53 r, 14.30m,0000000161Hz,0000000000c,0000000.000s, 022.8C,00002191
2020-10-11 07:17:54 r, 12.52m,0000000828Hz,0000000000c,0000000.000s, 022.8C,00002191
2020-10-11 07:27:56 r, 10.42m,0000005720Hz,0000000000c,0000000.000s, 023.2C,00002191
2020-10-11 07:37:53 r, 08.65m,0000029198Hz,0000000000c,0000000.000s, 023.2C,00002191
2020-10-11 07:47:53 r, 07.59m,0000078031Hz,0000000000c,0000000.000s, 023.5C,00002191
2020-10-11 07:57:54 r, 06.31m,0000252033Hz,0000000000c,0000000.000s, 023.5C,00002191
2020-10-11 08:07:53 r, 06.08m,0000313949Hz,0000000000c,0000000.000s, 023.8C,00002191
2020-10-11 08:17:53 r, 00.00m,0000476165Hz,0000000000c,0000000.000s, 024.1C,00002191
2020-10-11 08:27:54 r, 00.00m,0000467740Hz,0000000000c,0000000.000s, 024.4C,00002191
2020-10-11 08:37:53 r, 05.88m,0000375967Hz,0000000000c,0000000.000s, 024.8C,00002191
2020-10-11 08:47:53 r, 00.00m,0000596535Hz,0000000000c,0000000.000s, 025.1C,00002191
2020-10-11 08:57:56 r, 00.00m,0000596595Hz,0000000000c,0000000.000s, 025.4C,00002191
2020-10-11 09:07:53 r, 00.00m,0000596542Hz,0000000000c,0000000.000s, 026.1C,00002191
2020-10-11 09:17:53 r, 00.00m,0000596433Hz,0000000000c,0000000.000s, 026.4C,00002191
2020-10-11 09:27:56 r, 00.00m,0000596436Hz,0000000000c,0000000.000s, 026.4C,00002191
2020-10-11 09:37:53 r, 00.00m,0000596429Hz,0000000000c,0000000.000s, 027.0C,00002191
2020-10-11 09:47:53 r, 00.00m,0000596480Hz,0000000000c,0000000.000s, 027.0C,00002191
2020-10-11 09:57:54 r, 00.00m,0000596257Hz,0000000000c,0000000.000s, 027.0C,00002191
2020-10-11 10:07:53 r, 00.00m,0000596308Hz,0000000000c,0000000.000s, 027.3C,00002191
2020-10-11 10:17:53 r, 00.00m,0000596277Hz,0000000000c,0000000.000s, 028.0C,00002191
2020-10-11 10:27:54 r, 00.00m,0000596234Hz,0000000000c,0000000.000s, 028.0C,00002191
2020-10-11 10:37:53 r, 00.00m,0000596141Hz,0000000000c,0000000.000s, 028.3C,00002191
2020-10-11 10:47:53 r, 00.00m,0000596223Hz,0000000000c,0000000.000s, 028.3C,00002191
2020-10-11 10:57:55 r, 00.00m,0000596119Hz,0000000000c,0000000.000s, 028.3C,00002191
2020-10-11 11:07:53 r, 00.00m,0000596103Hz,0000000000c,0000000.000s, 029.0C,00002191
2020-10-11 11:17:53 r, 00.00m,0000595924Hz,0000000000c,0000000.000s, 030.2C,00002191
2020-10-11 11:27:56 r, 00.00m,0000595727Hz,0000000000c,0000000.000s, 031.9C,00002191
2020-10-11 11:37:53 r, 00.00m,0000595505Hz,0000000000c,0000000.000s, 033.8C,00002191
2020-10-11 11:47:53 r, 00.00m,0000595367Hz,0000000000c,0000000.000s, 035.1C,00002191
2020-10-11 11:57:56 r, 00.00m,0000595223Hz,0000000000c,0000000.000s, 035.4C,00002191
2020-10-11 12:07:53 r, 00.00m,0000595252Hz,0000000000c,0000000.000s, 035.7C,00002191
2020-10-11 12:17:53 r, 00.00m,0000595251Hz,0000000000c,0000000.000s, 036.0C,00002191
2020-10-11 12:27:54 r, 00.00m,0000595508Hz,0000000000c,0000000.000s, 034.8C,00002191
2020-10-11 12:37:53 r, 00.00m,0000595664Hz,0000000000c,0000000.000s, 033.1C,00002191
2020-10-11 12:47:53 r, 00.00m,0000595783Hz,0000000000c,0000000.000s, 032.2C,00002191
2020-10-11 12:57:55 r, 00.00m,0000595760Hz,0000000000c,0000000.000s, 032.2C,00002191
2020-10-11 13:07:54 r, 00.00m,0000595727Hz,0000000000c,0000000.000s, 032.2C,00002191
2020-10-11 13:17:53 r, 00.00m,0000595687Hz,0000000000c,0000000.000s, 032.5C,00002191
2020-10-11 13:27:56 r, 00.00m,0000595676Hz,0000000000c,0000000.000s, 033.1C,00002191
2020-10-11 13:37:54 r, 00.00m,0000595571Hz,0000000000c,0000000.000s, 033.5C,00002191
2020-10-11 13:47:53 r, 00.00m,0000595282Hz,0000000000c,0000000.000s, 034.8C,00002191
2020-10-11 13:57:56 r, 00.00m,0000595197Hz,0000000000c,0000000.000s, 035.7C,00002191
2020-10-11 14:07:54 r, 00.00m,0000595212Hz,0000000000c,0000000.000s, 036.0C,00002191
2020-10-11 14:17:53 r, 00.00m,0000595238Hz,0000000000c,0000000.000s, 035.7C,00002191
2020-10-11 14:27:54 r, 00.00m,0000595227Hz,0000000000c,0000000.000s, 035.7C,00002191
2020-10-11 14:37:55 r, 00.00m,0000595319Hz,0000000000c,0000000.000s, 035.7C,00002191
2020-10-11 14:47:53 r, 00.00m,0000595366Hz,0000000000c,0000000.000s, 035.1C,00002191
2020-10-11 14:57:55 r, 00.00m,0000595361Hz,0000000000c,0000000.000s, 035.1C,00002191
2020-10-11 15:07:54 r, 00.00m,0000595417Hz,0000000000c,0000000.000s, 034.8C,00002191
2020-10-11 15:17:53 r, 00.00m,0000595394Hz,0000000000c,0000000.000s, 035.1C,00002191
2020-10-11 15:27:55 r, 00.00m,0000595509Hz,0000000000c,0000000.000s, 034.4C,00002191
2020-10-11 15:37:54 r, 00.00m,0000595469Hz,0000000000c,0000000.000s, 034.1C,00002191
2020-10-11 15:47:53 r, 00.00m,0000595600Hz,0000000000c,0000000.000s, 033.5C,00002191
2020-10-11 15:57:56 r, 00.00m,0000595553Hz,0000000000c,0000000.000s, 033.1C,00002191
2020-10-11 16:07:54 r, 00.00m,0000595656Hz,0000000000c,0000000.000s, 033.1C,00002191
2020-10-11 16:17:53 r, 00.00m,0000595748Hz,0000000000c,0000000.000s, 032.5C,00002191
2020-10-11 16:27:54 r, 00.00m,0000595753Hz,0000000000c,0000000.000s, 031.9C,00002191
2020-10-11 16:37:55 r, 00.00m,0000595794Hz,0000000000c,0000000.000s, 031.5C,00002191
2020-10-11 16:47:53 r, 00.00m,0000595905Hz,0000000000c,0000000.000s, 030.9C,00002191
2020-10-11 16:57:55 r, 00.00m,0000595877Hz,0000000000c,0000000.000s, 030.6C,00002191
2020-10-11 17:07:54 r, 00.00m,0000595892Hz,0000000000c,0000000.000s, 030.9C,00002191
2020-10-11 17:17:54 r, 00.00m,0000404216Hz,0000000000c,0000000.000s, 030.9C,00002191
2020-10-11 17:27:54 r, 06.29m,0000257154Hz,0000000000c,0000000.000s, 030.6C,00002191
2020-10-11 17:37:56 r, 06.24m,0000268666Hz,0000000000c,0000000.000s, 029.9C,00002191
2020-10-11 17:47:53 r, 07.07m,0000125380Hz,0000000000c,0000000.000s, 028.6C,00002191
2020-10-11 17:57:56 r, 07.62m,0000076106Hz,0000000000c,0000000.000s, 027.3C,00002191
2020-10-11 18:07:54 r, 06.84m,0000156364Hz,0000000000c,0000000.000s, 027.0C,00002191
2020-10-11 18:17:53 r, 07.15m,0000116401Hz,0000000000c,0000000.000s, 026.4C,00002191
2020-10-11 18:27:56 r, 08.08m,0000049917Hz,0000000000c,0000000.000s, 026.1C,00002191
2020-10-11 18:37:54 r, 09.11m,0000019326Hz,0000000000c,0000000.000s, 026.1C,00002191
2020-10-11 18:47:54 r, 09.71m,0000011040Hz,0000000000c,0000000.000s, 026.1C,00002191
2020-10-11 18:57:54 r, 10.78m,0000004097Hz,0000000000c,0000000.000s, 025.7C,00002191
2020-10-11 19:07:55 r, 12.99m,0000000537Hz,0000000000c,0000000.000s, 025.7C,00002191
2020-10-11 19:17:54 r, 14.54m,0000000129Hz,0000000000c,0000000.000s, 025.7C,00002191
2020-10-11 19:27:55 r, 16.49m,0000000021Hz,0000021510c,0000000.047s, 025.4C,00002191
2020-10-11 19:37:54 r, 17.76m,0000000006Hz,0000069997c,0000000.152s, 025.4C,00002191
2020-10-11 19:47:54 r, 18.87m,0000000002Hz,0000193340c,0000000.420s, 025.1C,00002191
2020-10-11 19:57:54 r, 19.24m,0000000002Hz,0000271564c,0000000.589s, 024.8C,00002191
2020-10-11 20:07:56 r, 19.30m,0000000002Hz,0000287465c,0000000.624s, 024.4C,00002191
2020-10-11 20:17:54 r, 19.40m,0000000001Hz,0000316606c,0000000.687s, 024.1C,00002191
2020-10-11 20:27:56 r, 19.53m,0000000001Hz,0000355158c,0000000.771s, 023.8C,00002191
2020-10-11 20:37:54 r, 19.74m,0000000001Hz,0000429215c,0000000.931s, 023.5C,00002191
2020-10-11 20:47:54 r, 19.59m,0000000001Hz,0000373411c,0000000.810s, 023.5C,00002191
2020-10-11 20:57:54 r, 19.67m,0000000001Hz,0000402208c,0000000.873s, 023.5C,00002191
2020-10-11 21:07:55 r, 19.74m,0000000001Hz,0000429137c,0000000.931s, 023.5C,00002191
2020-10-11 21:17:54 r, 19.82m,0000000001Hz,0000461603c,0000001.002s, 023.5C,00002191
2020-10-11 21:27:55 r, 20.24m,0000000001Hz,0000672028c,0000001.458s, 023.2C,00002191
2020-10-11 21:37:54 r, 19.93m,0000000001Hz,0000509875c,0000001.106s, 023.2C,00002191
2020-10-11 21:47:54 r, 19.69m,0000000001Hz,0000409894c,0000000.890s, 022.8C,00002191
2020-10-11 21:57:54 r, 19.80m,0000000001Hz,0000453061c,0000000.983s, 022.8C,00002191
2020-10-11 22:07:56 r, 19.78m,0000000002Hz,0000444269c,0000000.964s, 022.8C,00002191
2020-10-11 22:17:54 r, 19.70m,0000000001Hz,0000414747c,0000000.900s, 022.8C,00002191
2020-10-11 22:27:56 r, 20.24m,0000000000Hz,0000677809c,0000001.471s, 022.8C,00002191
2020-10-11 22:37:54 r, 19.70m,0000000001Hz,0000411717c,0000000.893s, 022.8C,00002191
2020-10-11 22:47:54 r, 19.65m,0000000002Hz,0000395394c,0000000.858s, 022.8C,00002191
2020-10-11 22:57:56 r, 19.72m,0000000001Hz,0000423493c,0000000.919s, 022.8C,00002191
2020-10-11 23:07:54 r, 19.57m,0000000002Hz,0000364761c,0000000.792s, 022.8C,00002191
2020-10-11 23:17:54 r, 19.53m,0000000002Hz,0000353264c,0000000.767s, 022.8C,00002191
2020-10-11 23:27:54 r, 19.69m,0000000002Hz,0000408153c,0000000.886s, 022.8C,00002191
2020-10-11 23:37:55 r, 19.66m,0000000001Hz,0000399206c,0000000.866s, 022.8C,00002191
2020-10-11 23:47:54 r, 19.64m,0000000001Hz,0000392162c,0000000.851s, 022.5C,00002191
2020-10-11 23:57:55 r, 19.61m,0000000002Hz,0000379252c,0000000.823s, 022.5C,00002191
